Location: Chaumontel
(49.1247°N, 2.4324°E)
Time: 05:13:35
(UTC+00:00)

COSMOS 2428 - Pass Details

Date: 09 August 2024
Orbit: 842 x 857 km, 70.9° (Epoch: 08 September)

Event Time Altitude Azimuth Distance (km) Brightness Sun altitude
Exits shadow 02:23:54 27° 200° (SSW) 1,558 3.5 -17.3°
Maximum altitude 02:27:05 81° 116° (ESE) 864 2.7 -17.0°
Drops below altitude 10° 02:32:48 10° 30° (NNE) 2,489 6.4 -16.4°
Sets 02:35:16 0° 30° (NNE) 3,431 7.6 -16.2°
